#datetime,building,power
2022-07-07T00:00:00,mfh,18.30
2022-07-07T00:01:00,mfh,18.29
2022-07-07T00:02:00,mfh,18.64
2022-07-07T00:03:00,mfh,18.72
2022-07-07T00:04:00,mfh,18.57
2022-07-07T00:05:00,mfh,19.54
2022-07-07T00:06:00,mfh,17.84
2022-07-07T00:07:00,mfh,17.74
2022-07-07T00:08:00,mfh,18.21
2022-07-07T00:09:00,mfh,17.74
2022-07-07T00:10:00,mfh,18.58
2022-07-07T00:11:00,mfh,18.60
2022-07-07T00:12:00,mfh,18.57
2022-07-07T00:13:00,mfh,18.27
2022-07-07T00:14:00,mfh,18.67
2022-07-07T00:15:00,mfh,18.42
2022-07-07T00:16:00,mfh,18.03
2022-07-07T00:17:00,mfh,18.55
2022-07-07T00:18:00,mfh,18.73
2022-07-07T00:19:00,mfh,18.94
2022-07-07T00:20:00,mfh,18.63
2022-07-07T00:21:00,mfh,17.90
2022-07-07T00:22:00,mfh,18.03
2022-07-07T00:23:00,mfh,17.93
2022-07-07T00:24:00,mfh,18.68
2022-07-07T00:25:00,mfh,18.73
2022-07-07T00:26:00,mfh,19.05
2022-07-07T00:27:00,mfh,19.23
2022-07-07T00:28:00,mfh,18.66
2022-07-07T00:29:00,mfh,18.11
2022-07-07T00:30:00,mfh,18.11
2022-07-07T00:31:00,mfh,18.31
2022-07-07T00:32:00,mfh,17.94
2022-07-07T00:33:00,mfh,20.13
2022-07-07T00:34:00,mfh,19.61
2022-07-07T00:35:00,mfh,18.84
2022-07-07T00:36:00,mfh,18.98
2022-07-07T00:37:00,mfh,18.75
2022-07-07T00:38:00,mfh,18.14
2022-07-07T00:39:00,mfh,18.13
2022-07-07T00:40:00,mfh,18.16
2022-07-07T00:41:00,mfh,18.20
2022-07-07T00:42:00,mfh,18.66
2022-07-07T00:43:00,mfh,18.66
2022-07-07T00:44:00,mfh,18.74
2022-07-07T00:45:00,mfh,19.24
2022-07-07T00:46:00,mfh,18.23
2022-07-07T00:47:00,mfh,18.15
2022-07-07T00:48:00,mfh,17.83
2022-07-07T00:49:00,mfh,17.83
2022-07-07T00:50:00,mfh,18.44
2022-07-07T00:51:00,mfh,19.09
2022-07-07T00:52:00,mfh,18.53
2022-07-07T00:53:00,mfh,19.10
2022-07-07T00:54:00,mfh,18.34
2022-07-07T00:55:00,mfh,17.85
2022-07-07T00:56:00,mfh,17.82
2022-07-07T00:57:00,mfh,17.85
2022-07-07T00:58:00,mfh,19.54
2022-07-07T00:59:00,mfh,19.98
2022-07-07T01:00:00,mfh,19.54
2022-07-07T01:01:00,mfh,19.91
2022-07-07T01:02:00,mfh,18.62
2022-07-07T01:03:00,mfh,18.24
2022-07-07T01:04:00,mfh,18.16
2022-07-07T01:05:00,mfh,18.58
2022-07-07T01:06:00,mfh,18.81
2022-07-07T01:07:00,mfh,19.21
2022-07-07T01:08:00,mfh,18.81
2022-07-07T01:09:00,mfh,19.06
2022-07-07T01:10:00,mfh,19.74
2022-07-07T01:11:00,mfh,18.16
2022-07-07T01:12:00,mfh,18.52
2022-07-07T01:13:00,mfh,18.64
2022-07-07T01:14:00,mfh,18.27
2022-07-07T01:15:00,mfh,19.39
2022-07-07T01:16:00,mfh,18.63
2022-07-07T01:17:00,mfh,19.10
2022-07-07T01:18:00,mfh,18.12
2022-07-07T01:19:00,mfh,17.86
2022-07-07T01:20:00,mfh,18.45
2022-07-07T01:21:00,mfh,17.89
2022-07-07T01:22:00,mfh,19.43
2022-07-07T01:23:00,mfh,18.71
2022-07-07T01:24:00,mfh,19.12
2022-07-07T01:25:00,mfh,18.91
2022-07-07T01:26:00,mfh,18.22
2022-07-07T01:27:00,mfh,18.25
2022-07-07T01:28:00,mfh,18.26
2022-07-07T01:29:00,mfh,18.48
2022-07-07T01:30:00,mfh,19.09
2022-07-07T01:31:00,mfh,18.86
2022-07-07T01:32:00,mfh,18.88
2022-07-07T01:33:00,mfh,19.28
2022-07-07T01:34:00,mfh,18.53
2022-07-07T01:35:00,mfh,19.24
2022-07-07T01:36:00,mfh,18.82
2022-07-07T01:37:00,mfh,17.97
2022-07-07T01:38:00,mfh,18.64
2022-07-07T01:39:00,mfh,18.87
2022-07-07T01:40:00,mfh,18.85
2022-07-07T01:41:00,mfh,18.85
2022-07-07T01:42:00,mfh,18.04
2022-07-07T01:43:00,mfh,18.23
2022-07-07T01:44:00,mfh,19.65
2022-07-07T01:45:00,mfh,18.26
2022-07-07T01:46:00,mfh,18.49
2022-07-07T01:47:00,mfh,18.88
2022-07-07T01:48:00,mfh,18.83
2022-07-07T01:49:00,mfh,18.87
2022-07-07T01:50:00,mfh,19.09
2022-07-07T01:51:00,mfh,18.46
2022-07-07T01:52:00,mfh,18.46
2022-07-07T01:53:00,mfh,18.82
2022-07-07T01:54:00,mfh,18.57
2022-07-07T01:55:00,mfh,18.96
2022-07-07T01:56:00,mfh,20.13
2022-07-07T01:57:00,mfh,19.19
2022-07-07T01:58:00,mfh,19.05
2022-07-07T01:59:00,mfh,19.09
2022-07-07T02:00:00,mfh,18.35
2022-07-07T02:01:00,mfh,18.18
2022-07-07T02:02:00,mfh,18.13
2022-07-07T02:03:00,mfh,18.66
2022-07-07T02:04:00,mfh,18.87
2022-07-07T02:05:00,mfh,18.68
2022-07-07T02:06:00,mfh,19.41
2022-07-07T02:07:00,mfh,18.24
2022-07-07T02:08:00,mfh,18.30
2022-07-07T02:09:00,mfh,18.03
2022-07-07T02:10:00,mfh,18.47
2022-07-07T02:11:00,mfh,18.71
2022-07-07T02:12:00,mfh,18.71
2022-07-07T02:13:00,mfh,18.86
2022-07-07T02:14:00,mfh,18.80
2022-07-07T02:15:00,mfh,18.11
2022-07-07T02:16:00,mfh,18.12
2022-07-07T02:17:00,mfh,18.01
2022-07-07T02:18:00,mfh,18.04
2022-07-07T02:19:00,mfh,18.64
2022-07-07T02:20:00,mfh,19.03
2022-07-07T02:21:00,mfh,18.88
2022-07-07T02:22:00,mfh,19.53
2022-07-07T02:23:00,mfh,18.12
2022-07-07T02:24:00,mfh,18.23
2022-07-07T02:25:00,mfh,18.18
2022-07-07T02:26:00,mfh,17.97
2022-07-07T02:27:00,mfh,19.07
2022-07-07T02:28:00,mfh,18.58
2022-07-07T02:29:00,mfh,18.68
2022-07-07T02:30:00,mfh,19.10
2022-07-07T02:31:00,mfh,18.47
2022-07-07T02:32:00,mfh,18.63
2022-07-07T02:33:00,mfh,18.49
2022-07-07T02:34:00,mfh,17.89
2022-07-07T02:35:00,mfh,18.86
2022-07-07T02:36:00,mfh,18.76
2022-07-07T02:37:00,mfh,18.84
2022-07-07T02:38:00,mfh,19.54
2022-07-07T02:39:00,mfh,17.88
2022-07-07T02:40:00,mfh,18.29
2022-07-07T02:41:00,mfh,18.23
2022-07-07T02:42:00,mfh,18.09
2022-07-07T02:43:00,mfh,18.70
2022-07-07T02:44:00,mfh,18.68
2022-07-07T02:45:00,mfh,18.80
2022-07-07T02:46:00,mfh,19.38
2022-07-07T02:47:00,mfh,18.25
2022-07-07T02:48:00,mfh,18.05
2022-07-07T02:49:00,mfh,18.44
2022-07-07T02:50:00,mfh,18.20
2022-07-07T02:51:00,mfh,18.71
2022-07-07T02:52:00,mfh,19.15
2022-07-07T02:53:00,mfh,18.56
2022-07-07T02:54:00,mfh,18.77
2022-07-07T02:55:00,mfh,18.56
2022-07-07T02:56:00,mfh,18.49
2022-07-07T02:57:00,mfh,18.32
2022-07-07T02:58:00,mfh,18.29
2022-07-07T02:59:00,mfh,18.62
2022-07-07T03:00:00,mfh,18.64
2022-07-07T03:01:00,mfh,18.84
2022-07-07T03:02:00,mfh,18.76
2022-07-07T03:03:00,mfh,17.81
2022-07-07T03:04:00,mfh,17.84
2022-07-07T03:05:00,mfh,17.79
2022-07-07T03:06:00,mfh,18.50
2022-07-07T03:07:00,mfh,19.57
2022-07-07T03:08:00,mfh,19.49
2022-07-07T03:09:00,mfh,19.31
2022-07-07T03:10:00,mfh,19.33
2022-07-07T03:11:00,mfh,18.67
2022-07-07T03:12:00,mfh,18.28
2022-07-07T03:13:00,mfh,26.36
2022-07-07T03:14:00,mfh,29.87
2022-07-07T03:15:00,mfh,30.93
2022-07-07T03:16:00,mfh,30.58
2022-07-07T03:17:00,mfh,30.64
2022-07-07T03:18:00,mfh,30.69
2022-07-07T03:19:00,mfh,29.79
2022-07-07T03:20:00,mfh,28.85
2022-07-07T03:21:00,mfh,28.63
2022-07-07T03:22:00,mfh,28.50
2022-07-07T03:23:00,mfh,29.23
2022-07-07T03:24:00,mfh,28.95
2022-07-07T03:25:00,mfh,29.65
2022-07-07T03:26:00,mfh,29.58
2022-07-07T03:27:00,mfh,29.92
2022-07-07T03:28:00,mfh,30.07
2022-07-07T03:29:00,mfh,30.14
2022-07-07T03:30:00,mfh,29.02
2022-07-07T03:31:00,mfh,30.91
2022-07-07T03:32:00,mfh,30.95
2022-07-07T03:33:00,mfh,30.93
2022-07-07T03:34:00,mfh,29.39
2022-07-07T03:35:00,mfh,29.22
2022-07-07T03:36:00,mfh,28.55
2022-07-07T03:37:00,mfh,28.73
2022-07-07T03:38:00,mfh,28.65
2022-07-07T03:39:00,mfh,29.46
2022-07-07T03:40:00,mfh,29.01
2022-07-07T03:41:00,mfh,28.05
2022-07-07T03:42:00,mfh,27.80
2022-07-07T03:43:00,mfh,29.63
2022-07-07T03:44:00,mfh,29.11
2022-07-07T03:45:00,mfh,29.71
2022-07-07T03:46:00,mfh,28.18
2022-07-07T03:47:00,mfh,29.91
2022-07-07T03:48:00,mfh,28.60
2022-07-07T03:49:00,mfh,29.07
2022-07-07T03:50:00,mfh,28.51
2022-07-07T03:51:00,mfh,27.95
2022-07-07T03:52:00,mfh,27.86
2022-07-07T03:53:00,mfh,27.81
2022-07-07T03:54:00,mfh,27.85
2022-07-07T03:55:00,mfh,28.13
2022-07-07T03:56:00,mfh,28.38
2022-07-07T03:57:00,mfh,28.81
2022-07-07T03:58:00,mfh,27.44
2022-07-07T03:59:00,mfh,26.76
2022-07-07T04:00:00,mfh,26.78
2022-07-07T04:01:00,mfh,26.88
2022-07-07T04:02:00,mfh,26.91
2022-07-07T04:03:00,mfh,27.46
2022-07-07T04:04:00,mfh,27.58
2022-07-07T04:05:00,mfh,27.65
2022-07-07T04:06:00,mfh,27.98
2022-07-07T04:07:00,mfh,27.21
2022-07-07T04:08:00,mfh,26.85
2022-07-07T04:09:00,mfh,27.14
2022-07-07T04:10:00,mfh,26.84
2022-07-07T04:11:00,mfh,27.49
2022-07-07T04:12:00,mfh,27.47
2022-07-07T04:13:00,mfh,27.81
2022-07-07T04:14:00,mfh,27.45
2022-07-07T04:15:00,mfh,26.75
2022-07-07T04:16:00,mfh,26.97
2022-07-07T04:17:00,mfh,26.88
2022-07-07T04:18:00,mfh,26.94
2022-07-07T04:19:00,mfh,27.45
2022-07-07T04:20:00,mfh,28.59
2022-07-07T04:21:00,mfh,29.78
2022-07-07T04:22:00,mfh,28.96
2022-07-07T04:23:00,mfh,28.20
2022-07-07T04:24:00,mfh,28.18
2022-07-07T04:25:00,mfh,28.18
2022-07-07T04:26:00,mfh,27.03
2022-07-07T04:27:00,mfh,27.01
2022-07-07T04:28:00,mfh,29.17
2022-07-07T04:29:00,mfh,28.60
2022-07-07T04:30:00,mfh,28.88
2022-07-07T04:31:00,mfh,28.68
2022-07-07T04:32:00,mfh,28.32
2022-07-07T04:33:00,mfh,28.08
2022-07-07T04:34:00,mfh,27.82
2022-07-07T04:35:00,mfh,27.85
2022-07-07T04:36:00,mfh,29.69
2022-07-07T04:37:00,mfh,29.25
2022-07-07T04:38:00,mfh,27.57
2022-07-07T04:39:00,mfh,27.58
2022-07-07T04:40:00,mfh,27.23
2022-07-07T04:41:00,mfh,28.00
2022-07-07T04:42:00,mfh,28.63
2022-07-07T04:43:00,mfh,28.01
2022-07-07T04:44:00,mfh,28.59
2022-07-07T04:45:00,mfh,29.20
2022-07-07T04:46:00,mfh,28.86
2022-07-07T04:47:00,mfh,29.66
2022-07-07T04:48:00,mfh,28.48
2022-07-07T04:49:00,mfh,27.99
2022-07-07T04:50:00,mfh,28.22
2022-07-07T04:51:00,mfh,28.55
2022-07-07T04:52:00,mfh,28.84
2022-07-07T04:53:00,mfh,27.56
2022-07-07T04:54:00,mfh,28.18
2022-07-07T04:55:00,mfh,27.40
2022-07-07T04:56:00,mfh,26.87
2022-07-07T04:57:00,mfh,27.24
2022-07-07T04:58:00,mfh,27.45
2022-07-07T04:59:00,mfh,27.96
2022-07-07T05:00:00,mfh,28.69
2022-07-07T05:01:00,mfh,42.16
2022-07-07T05:02:00,mfh,42.85
2022-07-07T05:03:00,mfh,43.00
2022-07-07T05:04:00,mfh,43.53
2022-07-07T05:05:00,mfh,43.65
2022-07-07T05:06:00,mfh,43.60
2022-07-07T05:07:00,mfh,43.69
2022-07-07T05:08:00,mfh,43.53
2022-07-07T05:09:00,mfh,42.86
2022-07-07T05:10:00,mfh,42.31
2022-07-07T05:11:00,mfh,42.77
2022-07-07T05:12:00,mfh,43.47
2022-07-07T05:13:00,mfh,43.21
2022-07-07T05:14:00,mfh,43.22
2022-07-07T05:15:00,mfh,43.94
2022-07-07T05:16:00,mfh,43.46
2022-07-07T05:17:00,mfh,43.53
2022-07-07T05:18:00,mfh,42.80
2022-07-07T05:19:00,mfh,43.82
2022-07-07T05:20:00,mfh,42.94
2022-07-07T05:21:00,mfh,43.97
2022-07-07T05:22:00,mfh,44.33
2022-07-07T05:23:00,mfh,43.02
2022-07-07T05:24:00,mfh,43.02
2022-07-07T05:25:00,mfh,43.06
2022-07-07T05:26:00,mfh,42.30
2022-07-07T05:27:00,mfh,42.22
2022-07-07T05:28:00,mfh,42.08
2022-07-07T05:29:00,mfh,42.73
2022-07-07T05:30:00,mfh,42.73
2022-07-07T05:31:00,mfh,42.97
2022-07-07T05:32:00,mfh,43.49
2022-07-07T05:33:00,mfh,43.60
2022-07-07T05:34:00,mfh,43.59
2022-07-07T05:35:00,mfh,43.36
2022-07-07T05:36:00,mfh,42.58
2022-07-07T05:37:00,mfh,42.90
2022-07-07T05:38:00,mfh,44.53
2022-07-07T05:39:00,mfh,43.56
2022-07-07T05:40:00,mfh,43.45
2022-07-07T05:41:00,mfh,43.38
2022-07-07T05:42:00,mfh,43.25
2022-07-07T05:43:00,mfh,43.13
2022-07-07T05:44:00,mfh,42.36
2022-07-07T05:45:00,mfh,43.04
2022-07-07T05:46:00,mfh,42.30
2022-07-07T05:47:00,mfh,42.57
2022-07-07T05:48:00,mfh,42.19
2022-07-07T05:49:00,mfh,42.20
2022-07-07T05:50:00,mfh,42.07
2022-07-07T05:51:00,mfh,42.23
2022-07-07T05:52:00,mfh,41.61
2022-07-07T05:53:00,mfh,41.65
2022-07-07T05:54:00,mfh,41.58
2022-07-07T05:55:00,mfh,42.47
2022-07-07T05:56:00,mfh,42.95
2022-07-07T05:57:00,mfh,42.78
2022-07-07T05:58:00,mfh,42.58
2022-07-07T05:59:00,mfh,42.85
2022-07-07T06:00:00,mfh,41.95
2022-07-07T06:01:00,mfh,42.24
2022-07-07T06:02:00,mfh,42.47
2022-07-07T06:03:00,mfh,43.04
2022-07-07T06:04:00,mfh,42.70
2022-07-07T06:05:00,mfh,42.97
2022-07-07T06:06:00,mfh,43.50
2022-07-07T06:07:00,mfh,43.72
2022-07-07T06:08:00,mfh,45.38
2022-07-07T06:09:00,mfh,44.19
2022-07-07T06:10:00,mfh,44.21
2022-07-07T06:11:00,mfh,42.34
2022-07-07T06:12:00,mfh,42.75
2022-07-07T06:13:00,mfh,42.78
2022-07-07T06:14:00,mfh,42.87
2022-07-07T06:15:00,mfh,42.71
2022-07-07T06:16:00,mfh,42.98
2022-07-07T06:17:00,mfh,43.14
2022-07-07T06:18:00,mfh,43.23
2022-07-07T06:19:00,mfh,43.88
2022-07-07T06:20:00,mfh,43.90
2022-07-07T06:21:00,mfh,45.25
2022-07-07T06:22:00,mfh,43.75
2022-07-07T06:23:00,mfh,45.58
2022-07-07T06:24:00,mfh,44.71
2022-07-07T06:25:00,mfh,45.13
2022-07-07T06:26:00,mfh,45.44
2022-07-07T06:27:00,mfh,45.20
2022-07-07T06:28:00,mfh,45.26
2022-07-07T06:29:00,mfh,44.18
2022-07-07T06:30:00,mfh,43.44
2022-07-07T06:31:00,mfh,43.91
2022-07-07T06:32:00,mfh,43.89
2022-07-07T06:33:00,mfh,44.03
2022-07-07T06:34:00,mfh,45.29
2022-07-07T06:35:00,mfh,45.13
2022-07-07T06:36:00,mfh,45.13
2022-07-07T06:37:00,mfh,45.07
2022-07-07T06:38:00,mfh,44.95
2022-07-07T06:39:00,mfh,44.32
2022-07-07T06:40:00,mfh,45.35
2022-07-07T06:41:00,mfh,45.27
2022-07-07T06:42:00,mfh,46.20
2022-07-07T06:43:00,mfh,44.25
2022-07-07T06:44:00,mfh,44.99
2022-07-07T06:45:00,mfh,45.68
2022-07-07T06:46:00,mfh,44.05
2022-07-07T06:47:00,mfh,43.80
2022-07-07T06:48:00,mfh,43.26
2022-07-07T06:49:00,mfh,42.83
2022-07-07T06:50:00,mfh,42.84
2022-07-07T06:51:00,mfh,50.38
2022-07-07T06:52:00,mfh,65.33
2022-07-07T06:53:00,mfh,66.48
2022-07-07T06:54:00,mfh,66.42
2022-07-07T06:55:00,mfh,65.79
2022-07-07T06:56:00,mfh,64.64
2022-07-07T06:57:00,mfh,64.31
2022-07-07T06:58:00,mfh,64.88
2022-07-07T06:59:00,mfh,65.43
2022-07-07T07:00:00,mfh,64.86
2022-07-07T07:01:00,mfh,64.57
2022-07-07T07:02:00,mfh,64.59
2022-07-07T07:03:00,mfh,64.45
2022-07-07T07:04:00,mfh,64.35
2022-07-07T07:05:00,mfh,64.09
2022-07-07T07:06:00,mfh,63.53
2022-07-07T07:07:00,mfh,63.43
2022-07-07T07:08:00,mfh,64.19
2022-07-07T07:09:00,mfh,57.20
2022-07-07T07:10:00,mfh,50.62
2022-07-07T07:11:00,mfh,50.55
2022-07-07T07:12:00,mfh,50.53
2022-07-07T07:13:00,mfh,49.80
2022-07-07T07:14:00,mfh,42.17
2022-07-07T07:15:00,mfh,43.26
2022-07-07T07:16:00,mfh,65.41
2022-07-07T07:17:00,mfh,65.81
2022-07-07T07:18:00,mfh,65.83
2022-07-07T07:19:00,mfh,65.76
2022-07-07T07:20:00,mfh,65.78
2022-07-07T07:21:00,mfh,65.96
2022-07-07T07:22:00,mfh,64.11
2022-07-07T07:23:00,mfh,64.08
2022-07-07T07:24:00,mfh,64.25
2022-07-07T07:25:00,mfh,64.61
2022-07-07T07:26:00,mfh,64.72
2022-07-07T07:27:00,mfh,64.87
2022-07-07T07:28:00,mfh,57.02
2022-07-07T07:29:00,mfh,50.99
2022-07-07T07:30:00,mfh,50.67
2022-07-07T07:31:00,mfh,50.07
2022-07-07T07:32:00,mfh,50.21
2022-07-07T07:33:00,mfh,43.52
2022-07-07T07:34:00,mfh,44.35
2022-07-07T07:35:00,mfh,43.79
2022-07-07T07:36:00,mfh,43.43
2022-07-07T07:37:00,mfh,43.36
2022-07-07T07:38:00,mfh,42.93
2022-07-07T07:39:00,mfh,43.40
2022-07-07T07:40:00,mfh,43.46
2022-07-07T07:41:00,mfh,43.22
2022-07-07T07:42:00,mfh,44.30
2022-07-07T07:43:00,mfh,43.90
2022-07-07T07:44:00,mfh,44.66
2022-07-07T07:45:00,mfh,44.04
2022-07-07T07:46:00,mfh,43.59
2022-07-07T07:47:00,mfh,42.84
2022-07-07T07:48:00,mfh,43.61
2022-07-07T07:49:00,mfh,42.79
2022-07-07T07:50:00,mfh,43.50
2022-07-07T07:51:00,mfh,44.02
2022-07-07T07:52:00,mfh,43.99
2022-07-07T07:53:00,mfh,43.66
2022-07-07T07:54:00,mfh,43.66
2022-07-07T07:55:00,mfh,43.05
2022-07-07T07:56:00,mfh,42.18
2022-07-07T07:57:00,mfh,42.21
2022-07-07T07:58:00,mfh,42.14
2022-07-07T07:59:00,mfh,42.82
2022-07-07T08:00:00,mfh,42.86
2022-07-07T08:01:00,mfh,42.87
2022-07-07T08:02:00,mfh,42.73
2022-07-07T08:03:00,mfh,42.96
2022-07-07T08:04:00,mfh,42.64
2022-07-07T08:05:00,mfh,42.40
2022-07-07T08:06:00,mfh,42.94
2022-07-07T08:07:00,mfh,43.93
2022-07-07T08:08:00,mfh,43.91
2022-07-07T08:09:00,mfh,43.50
2022-07-07T08:10:00,mfh,43.65
2022-07-07T08:11:00,mfh,43.59
2022-07-07T08:12:00,mfh,43.60
2022-07-07T08:13:00,mfh,42.84
2022-07-07T08:14:00,mfh,42.70
2022-07-07T08:15:00,mfh,42.63
2022-07-07T08:16:00,mfh,43.90
2022-07-07T08:17:00,mfh,42.27
2022-07-07T08:18:00,mfh,42.40
2022-07-07T08:19:00,mfh,42.50
2022-07-07T08:20:00,mfh,43.34
2022-07-07T08:21:00,mfh,43.47
2022-07-07T08:22:00,mfh,43.50
2022-07-07T08:23:00,mfh,43.49
2022-07-07T08:24:00,mfh,43.57
2022-07-07T08:25:00,mfh,43.01
2022-07-07T08:26:00,mfh,42.95
2022-07-07T08:27:00,mfh,42.83
2022-07-07T08:28:00,mfh,43.61
2022-07-07T08:29:00,mfh,43.61
2022-07-07T08:30:00,mfh,43.82
2022-07-07T08:31:00,mfh,44.25
2022-07-07T08:32:00,mfh,44.22
2022-07-07T08:33:00,mfh,44.51
2022-07-07T08:34:00,mfh,43.23
2022-07-07T08:35:00,mfh,43.35
2022-07-07T08:36:00,mfh,43.68
2022-07-07T08:37:00,mfh,44.08
2022-07-07T08:38:00,mfh,43.88
2022-07-07T08:39:00,mfh,43.80
2022-07-07T08:40:00,mfh,43.65
2022-07-07T08:41:00,mfh,43.77
2022-07-07T08:42:00,mfh,43.16
2022-07-07T08:43:00,mfh,43.63
2022-07-07T08:44:00,mfh,42.92
2022-07-07T08:45:00,mfh,42.83
2022-07-07T08:46:00,mfh,43.28
2022-07-07T08:47:00,mfh,43.47
2022-07-07T08:48:00,mfh,43.69
2022-07-07T08:49:00,mfh,43.18
2022-07-07T08:50:00,mfh,43.29
2022-07-07T08:51:00,mfh,42.43
2022-07-07T08:52:00,mfh,42.44
2022-07-07T08:53:00,mfh,54.09
2022-07-07T08:54:00,mfh,56.46
2022-07-07T08:55:00,mfh,55.05
2022-07-07T08:56:00,mfh,54.71
2022-07-07T08:57:00,mfh,54.54
2022-07-07T08:58:00,mfh,54.98
2022-07-07T08:59:00,mfh,54.06
2022-07-07T09:00:00,mfh,53.82
2022-07-07T09:01:00,mfh,53.84
2022-07-07T09:02:00,mfh,54.23
2022-07-07T09:03:00,mfh,54.21
2022-07-07T09:04:00,mfh,54.42
2022-07-07T09:05:00,mfh,53.61
2022-07-07T09:06:00,mfh,53.60
2022-07-07T09:07:00,mfh,53.64
2022-07-07T09:08:00,mfh,53.11
2022-07-07T09:09:00,mfh,53.03
2022-07-07T09:10:00,mfh,52.89
2022-07-07T09:11:00,mfh,53.36
2022-07-07T09:12:00,mfh,53.32
2022-07-07T09:13:00,mfh,53.21
2022-07-07T09:14:00,mfh,52.94
2022-07-07T09:15:00,mfh,53.55
2022-07-07T09:16:00,mfh,52.91
2022-07-07T09:17:00,mfh,52.90
2022-07-07T09:18:00,mfh,52.82
2022-07-07T09:19:00,mfh,52.99
2022-07-07T09:20:00,mfh,54.72
2022-07-07T09:21:00,mfh,53.74
2022-07-07T09:22:00,mfh,53.71
2022-07-07T09:23:00,mfh,53.63
2022-07-07T09:24:00,mfh,53.72
2022-07-07T09:25:00,mfh,53.10
2022-07-07T09:26:00,mfh,53.05
2022-07-07T09:27:00,mfh,53.14
2022-07-07T09:28:00,mfh,53.75
2022-07-07T09:29:00,mfh,53.66
2022-07-07T09:30:00,mfh,53.47
2022-07-07T09:31:00,mfh,53.56
2022-07-07T09:32:00,mfh,53.49
2022-07-07T09:33:00,mfh,52.99
2022-07-07T09:34:00,mfh,53.65
2022-07-07T09:35:00,mfh,53.07
2022-07-07T09:36:00,mfh,53.43
2022-07-07T09:37:00,mfh,53.68
2022-07-07T09:38:00,mfh,53.74
2022-07-07T09:39:00,mfh,53.89
2022-07-07T09:40:00,mfh,53.90
2022-07-07T09:41:00,mfh,53.91
2022-07-07T09:42:00,mfh,53.15
2022-07-07T09:43:00,mfh,53.18
2022-07-07T09:44:00,mfh,53.37
2022-07-07T09:45:00,mfh,53.33
2022-07-07T09:46:00,mfh,53.71
2022-07-07T09:47:00,mfh,54.02
2022-07-07T09:48:00,mfh,53.30
2022-07-07T09:49:00,mfh,53.27
2022-07-07T09:50:00,mfh,53.43
2022-07-07T09:51:00,mfh,53.22
2022-07-07T09:52:00,mfh,52.68
2022-07-07T09:53:00,mfh,52.56
2022-07-07T09:54:00,mfh,53.31
2022-07-07T09:55:00,mfh,53.72
2022-07-07T09:56:00,mfh,53.21
2022-07-07T09:57:00,mfh,53.24
2022-07-07T09:58:00,mfh,53.21
2022-07-07T09:59:00,mfh,52.30
2022-07-07T10:00:00,mfh,52.28
2022-07-07T10:01:00,mfh,52.62
2022-07-07T10:02:00,mfh,52.84
2022-07-07T10:03:00,mfh,52.90
2022-07-07T10:04:00,mfh,52.91
2022-07-07T10:05:00,mfh,52.90
2022-07-07T10:06:00,mfh,52.96
2022-07-07T10:07:00,mfh,52.82
2022-07-07T10:08:00,mfh,52.02
2022-07-07T10:09:00,mfh,52.97
2022-07-07T10:10:00,mfh,53.80
2022-07-07T10:11:00,mfh,44.21
2022-07-07T10:12:00,mfh,45.38
2022-07-07T10:13:00,mfh,44.90
2022-07-07T10:14:00,mfh,44.17
2022-07-07T10:15:00,mfh,43.43
2022-07-07T10:16:00,mfh,42.57
2022-07-07T10:17:00,mfh,41.85
2022-07-07T10:18:00,mfh,41.75
2022-07-07T10:19:00,mfh,41.89
2022-07-07T10:20:00,mfh,42.55
2022-07-07T10:21:00,mfh,43.48
2022-07-07T10:22:00,mfh,43.15
2022-07-07T10:23:00,mfh,43.26
2022-07-07T10:24:00,mfh,44.00
2022-07-07T10:25:00,mfh,41.81
2022-07-07T10:26:00,mfh,41.87
2022-07-07T10:27:00,mfh,41.83
2022-07-07T10:28:00,mfh,41.90
2022-07-07T10:29:00,mfh,42.46
2022-07-07T10:30:00,mfh,42.58
2022-07-07T10:31:00,mfh,42.44
2022-07-07T10:32:00,mfh,42.53
2022-07-07T10:33:00,mfh,42.45
2022-07-07T10:34:00,mfh,41.82
2022-07-07T10:35:00,mfh,42.05
2022-07-07T10:36:00,mfh,42.16
2022-07-07T10:37:00,mfh,42.96
2022-07-07T10:38:00,mfh,42.81
2022-07-07T10:39:00,mfh,42.95
2022-07-07T10:40:00,mfh,42.79
2022-07-07T10:41:00,mfh,43.48
2022-07-07T10:42:00,mfh,42.24
2022-07-07T10:43:00,mfh,42.23
2022-07-07T10:44:00,mfh,42.11
2022-07-07T10:45:00,mfh,42.18
2022-07-07T10:46:00,mfh,42.90
2022-07-07T10:47:00,mfh,42.90
2022-07-07T10:48:00,mfh,42.68
2022-07-07T10:49:00,mfh,42.52
2022-07-07T10:50:00,mfh,42.51
2022-07-07T10:51:00,mfh,41.96
2022-07-07T10:52:00,mfh,42.17
2022-07-07T10:53:00,mfh,41.84
2022-07-07T10:54:00,mfh,42.48
2022-07-07T10:55:00,mfh,42.46
2022-07-07T10:56:00,mfh,42.39
2022-07-07T10:57:00,mfh,42.68
2022-07-07T10:58:00,mfh,43.56
2022-07-07T10:59:00,mfh,44.31
2022-07-07T11:00:00,mfh,44.47
2022-07-07T11:01:00,mfh,43.21
2022-07-07T11:02:00,mfh,43.45
2022-07-07T11:03:00,mfh,43.78
2022-07-07T11:04:00,mfh,43.04
2022-07-07T11:05:00,mfh,44.45
2022-07-07T11:06:00,mfh,44.50
2022-07-07T11:07:00,mfh,43.00
2022-07-07T11:08:00,mfh,43.18
2022-07-07T11:09:00,mfh,43.35
2022-07-07T11:10:00,mfh,42.54
2022-07-07T11:11:00,mfh,43.91
2022-07-07T11:12:00,mfh,43.60
2022-07-07T11:13:00,mfh,43.08
2022-07-07T11:14:00,mfh,42.74
2022-07-07T11:15:00,mfh,42.83
2022-07-07T11:16:00,mfh,42.86
2022-07-07T11:17:00,mfh,42.12
2022-07-07T11:18:00,mfh,42.05
2022-07-07T11:19:00,mfh,42.06
2022-07-07T11:20:00,mfh,42.52
2022-07-07T11:21:00,mfh,42.42
2022-07-07T11:22:00,mfh,42.51
2022-07-07T11:23:00,mfh,42.84
2022-07-07T11:24:00,mfh,42.64
2022-07-07T11:25:00,mfh,41.98
2022-07-07T11:26:00,mfh,41.91
2022-07-07T11:27:00,mfh,41.88
2022-07-07T11:28:00,mfh,42.73
2022-07-07T11:29:00,mfh,43.40
2022-07-07T11:30:00,mfh,43.02
2022-07-07T11:31:00,mfh,42.73
2022-07-07T11:32:00,mfh,42.71
2022-07-07T11:33:00,mfh,42.12
2022-07-07T11:34:00,mfh,42.24
2022-07-07T11:35:00,mfh,42.14
2022-07-07T11:36:00,mfh,42.04
2022-07-07T11:37:00,mfh,42.69
2022-07-07T11:38:00,mfh,42.70
2022-07-07T11:39:00,mfh,42.64
2022-07-07T11:40:00,mfh,42.71
2022-07-07T11:41:00,mfh,42.57
2022-07-07T11:42:00,mfh,42.41
2022-07-07T11:43:00,mfh,42.22
2022-07-07T11:44:00,mfh,41.97
2022-07-07T11:45:00,mfh,42.55
2022-07-07T11:46:00,mfh,42.63
2022-07-07T11:47:00,mfh,42.71
2022-07-07T11:48:00,mfh,42.59
2022-07-07T11:49:00,mfh,42.65
2022-07-07T11:50:00,mfh,41.91
2022-07-07T11:51:00,mfh,41.85
2022-07-07T11:52:00,mfh,42.16
2022-07-07T11:53:00,mfh,42.27
2022-07-07T11:54:00,mfh,43.07
2022-07-07T11:55:00,mfh,43.13
2022-07-07T11:56:00,mfh,43.05
2022-07-07T11:57:00,mfh,42.82
2022-07-07T11:58:00,mfh,42.91
2022-07-07T11:59:00,mfh,42.16
2022-07-07T12:00:00,mfh,42.17
2022-07-07T12:01:00,mfh,42.47
2022-07-07T12:02:00,mfh,42.57
2022-07-07T12:03:00,mfh,43.13
2022-07-07T12:04:00,mfh,43.15
2022-07-07T12:05:00,mfh,44.04
2022-07-07T12:06:00,mfh,42.98
2022-07-07T12:07:00,mfh,43.02
2022-07-07T12:08:00,mfh,41.91
2022-07-07T12:09:00,mfh,41.91
2022-07-07T12:10:00,mfh,41.74
2022-07-07T12:11:00,mfh,42.53
2022-07-07T12:12:00,mfh,43.80
2022-07-07T12:13:00,mfh,43.82
2022-07-07T12:14:00,mfh,51.66
2022-07-07T12:15:00,mfh,52.38
2022-07-07T12:16:00,mfh,53.19
2022-07-07T12:17:00,mfh,52.31
2022-07-07T12:18:00,mfh,52.00
2022-07-07T12:19:00,mfh,51.95
2022-07-07T12:20:00,mfh,53.55
2022-07-07T12:21:00,mfh,53.91
2022-07-07T12:22:00,mfh,52.83
2022-07-07T12:23:00,mfh,52.77
2022-07-07T12:24:00,mfh,52.62
2022-07-07T12:25:00,mfh,51.85
2022-07-07T12:26:00,mfh,51.99
2022-07-07T12:27:00,mfh,52.22
2022-07-07T12:28:00,mfh,52.38
2022-07-07T12:29:00,mfh,52.35
2022-07-07T12:30:00,mfh,52.52
2022-07-07T12:31:00,mfh,44.90
2022-07-07T12:32:00,mfh,45.13
2022-07-07T12:33:00,mfh,45.34
2022-07-07T12:34:00,mfh,44.20
2022-07-07T12:35:00,mfh,43.98
2022-07-07T12:36:00,mfh,43.82
2022-07-07T12:37:00,mfh,44.50
2022-07-07T12:38:00,mfh,44.58
2022-07-07T12:39:00,mfh,44.73
2022-07-07T12:40:00,mfh,45.39
2022-07-07T12:41:00,mfh,45.16
2022-07-07T12:42:00,mfh,43.81
2022-07-07T12:43:00,mfh,43.78
2022-07-07T12:44:00,mfh,43.83
2022-07-07T12:45:00,mfh,44.16
2022-07-07T12:46:00,mfh,44.48
2022-07-07T12:47:00,mfh,44.62
2022-07-07T12:48:00,mfh,44.51
2022-07-07T12:49:00,mfh,45.27
2022-07-07T12:50:00,mfh,45.29
2022-07-07T12:51:00,mfh,44.58
2022-07-07T12:52:00,mfh,45.16
2022-07-07T12:53:00,mfh,45.20
2022-07-07T12:54:00,mfh,46.11
2022-07-07T12:55:00,mfh,46.12
2022-07-07T12:56:00,mfh,46.46
2022-07-07T12:57:00,mfh,45.95
2022-07-07T12:58:00,mfh,45.26
2022-07-07T12:59:00,mfh,44.55
2022-07-07T13:00:00,mfh,44.76
2022-07-07T13:01:00,mfh,44.80
2022-07-07T13:02:00,mfh,45.22
2022-07-07T13:03:00,mfh,46.11
2022-07-07T13:04:00,mfh,46.57
2022-07-07T13:05:00,mfh,46.70
2022-07-07T13:06:00,mfh,46.52
2022-07-07T13:07:00,mfh,47.43
2022-07-07T13:08:00,mfh,46.16
2022-07-07T13:09:00,mfh,46.08
2022-07-07T13:10:00,mfh,44.82
2022-07-07T13:11:00,mfh,45.37
2022-07-07T13:12:00,mfh,45.35
2022-07-07T13:13:00,mfh,45.23
2022-07-07T13:14:00,mfh,45.20
2022-07-07T13:15:00,mfh,45.30
2022-07-07T13:16:00,mfh,44.73
2022-07-07T13:17:00,mfh,45.29
2022-07-07T13:18:00,mfh,44.94